Sunday, November 19, 2017, 3:04 AM GMT
Back to Local

CXBO, Beauport CS, Que.

Location: , , Canada Lat: 46.833
Local Time: 3:04 AM GMT ( 3:04 GMT) Lon: -71.2
Time Zone: GMT Elev: 32 ft

Show me the last for .
Show Coded

Time T Td Feel RH Dir Speed Gust Alt SLP Vis Weather Sky Remarks
2017-11-19 02:00 - - - 0 70° 18 25 - - 0 Peak wind: 25 mph (22 kts) from 70° at 57 min
2017-11-19 01:00 - - - 0 70° 17 - - - 0 Peak wind: 23 mph (20 kts) from 60° at 39 min
2017-11-19 00:00 - - - 0 70° 15 23 - - 0 Peak wind: 23 mph (20 kts) from 80° at 57 min
2017-11-18 23:00 - - - 0 70° 14 - - - 0 Peak wind: 21 mph (19 kts) from 70° at 33 min
2017-11-18 22:00 - - - 0 70° 13 - - - 0 None
2017-11-18 21:00 - - - 0 60° 14 20 - - 0 Peak wind: 24 mph (21 kts) from 50° at 04 min
2017-11-18 20:00 - - - 0 50° 12 17 - - 0 None
2017-11-18 19:00 - - - 0 60° 5 - - - 0 None
2017-11-18 18:00 - - - 0 90° 6 - - - 0 None
2017-11-18 17:00 - - - 0 90° 2 - - - 0 None
2017-11-18 16:00 - - - 0 340° 1 - - - 0 None
2017-11-18 15:00 - - - 0 250° 3 - - - 0 None
2017-11-18 14:00 - - - 0 300° 2 - - - 0 None
2017-11-18 13:00 - - - 0 220° 2 - - - 0 None
2017-11-18 12:00 - - - 0 270° 3 - - - 0 None
2017-11-18 11:00 - - - 0 250° 7 - - - 0 None
2017-11-18 10:00 - - - 0 250° 9 - - - 0 None
2017-11-18 09:00 - - - 0 240° 8 - - - 0 None
2017-11-18 08:00 - - - 0 240° 10 - - - 0 None
2017-11-18 07:00 - - - 0 240° 12 - - - 0 None
2017-11-18 06:00 - - - 0 250° 10 - - - 0 None
2017-11-18 05:00 - - - 0 250° 13 - - - 0 None
2017-11-18 04:00 - - - 0 240° 9 - - - 0 None

Support USWX by starting your Amazon purchase here.